This is the latest recevied weather packets stored in our database for station/object N7CEE-2. If no packets are shown the sender has not sent any weather packets the latest 10 day(s).
| Time | Temp. | Humidity | Pressure | Rain* | Wind** | Luminosity | Snow |
|---|---|---|---|---|---|---|---|
| 1777334977 | 25.56° C | 21% | 1013.2 hPa | 0 mm | - | 284 W/m² | - |
| 1777334674 | 25.56° C | 21% | 1013.3 hPa | 0 mm | - | 303 W/m² | - |
| 1777334372 | 25.56° C | 21% | 1013.3 hPa | 0 mm | - | 319 W/m² | - |
| 1777334068 | 25.56° C | 21% | 1013.3 hPa | 0 mm | - | 340 W/m² | - |
| 1777333763 | 25.56° C | 21% | 1013.2 hPa | 0 mm | - | 364 W/m² | - |
| 1777333459 | 26.67° C | 21% | 1013.3 hPa | 0 mm | - | 385 W/m² | - |
| 1777333157 | 26.11° C | 21% | 1013.3 hPa | 0 mm | - | 403 W/m² | - |
| 1777332855 | 26.67° C | 20% | 1013.3 hPa | 0 mm | - | 426 W/m² | - |
| 1777332552 | 25.56° C | 21% | 1013.5 hPa | 0 mm | - | 448 W/m² | - |
| 1777332249 | 25° C | 21% | 1013.5 hPa | 0 mm | - | 470 W/m² | - |
| 1777331945 | 25.56° C | 21% | 1013.5 hPa | 0 mm | - | 489 W/m² | - |
| 1777331643 | 25.56° C | 21% | 1013.5 hPa | 0 mm | - | 511 W/m² | - |
| 1777331339 | 25° C | 21% | 1013.5 hPa | 0 mm | - | 532 W/m² | - |
| 1777331037 | 25.56° C | 21% | 1013.6 hPa | 0 mm | - | 551 W/m² | - |
| 1777330734 | 25° C | 22% | 1013.4 hPa | 0 mm | - | 570 W/m² | - |
| 1777330431 | 25.56° C | 20% | 1013.5 hPa | 0 mm | - | 590 W/m² | - |
| 1777330129 | 25.56° C | 20% | 1013.5 hPa | 0 mm | - | 608 W/m² | - |
| 1777329827 | 25.56° C | 20% | 1013.6 hPa | 0 mm | - | 619 W/m² | - |
| 1777329525 | 25.56° C | 21% | 1013.5 hPa | 0 mm | - | 640 W/m² | - |
| 1777329222 | 25° C | 22% | 1013.6 hPa | 0 mm | - | 659 W/m² | - |
| 1777328920 | 25° C | 21% | 1013.8 hPa | 0 mm | - | 677 W/m² | - |
| 1777328618 | 25.56° C | 21% | 1013.7 hPa | 0 mm | - | 688 W/m² | - |
| 1777328316 | 26.11° C | 21% | 1013.7 hPa | 0 mm | - | 708 W/m² | - |
| 1777328013 | 25.56° C | 20% | 1013.7 hPa | 0 mm | - | 724 W/m² | - |
| 1777327711 | 25.56° C | 21% | 1013.8 hPa | 0 mm | - | 745 W/m² | - |
* Rain latest hour (hover to see other rain measurements)
** Current wind speed in m/s (hover to see current wind gust speed)